TimeEST,TemperatureF,Dew PointF,Humidity,Sea Level PressureIn,VisibilityMPH,Wind Direction,Wind SpeedMPH,Gust SpeedMPH,PrecipitationIn,Events,Conditions,WindDirDegrees,DateUTC
12:52 AM,21.9,14.0,72,30.09,10.0,WNW,5.8,-,N/A,,Clear,300,2013-03-04 05:52:00
1:52 AM,21.9,14.0,72,30.11,10.0,NW,4.6,-,N/A,,Clear,310,2013-03-04 06:52:00
3:52 AM,19.0,12.9,77,30.10,10.0,NW,3.5,-,N/A,,Clear,310,2013-03-04 08:52:00
4:52 AM,17.1,12.0,81,30.13,10.0,West,4.6,-,N/A,,Clear,270,2013-03-04 09:52:00
5:52 AM,15.8,12.2,86,30.11,10.0,West,3.5,-,N/A,,Clear,280,2013-03-04 10:52:00
6:52 AM,17.1,12.0,81,30.15,10.0,Calm,Calm,-,N/A,,Clear,0,2013-03-04 11:52:00
7:52 AM,16.0,12.0,84,30.17,10.0,WSW,4.6,-,N/A,,Clear,250,2013-03-04 12:52:00
8:52 AM,21.9,15.1,75,30.18,10.0,NNW,3.5,-,N/A,,Clear,330,2013-03-04 13:52:00
9:52 AM,25.0,15.1,66,30.18,10.0,Calm,Calm,-,N/A,,Clear,0,2013-03-04 14:52:00
10:52 AM,28.9,15.1,56,30.17,10.0,Calm,Calm,-,N/A,,Clear,0,2013-03-04 15:52:00
11:52 AM,30.9,15.1,52,30.15,10.0,WSW,5.8,-,N/A,,Clear,250,2013-03-04 16:52:00
12:52 PM,32.0,15.1,50,30.14,10.0,Variable,4.6,-,N/A,,Clear,0,2013-03-04 17:52:00
1:52 PM,34.0,14.0,44,30.12,10.0,Variable,3.5,-,N/A,,Clear,0,2013-03-04 18:52:00
2:52 PM,35.1,15.1,44,30.11,10.0,WSW,5.8,-,N/A,,Clear,250,2013-03-04 19:52:00
3:52 PM,35.1,15.1,44,30.11,10.0,Variable,5.8,-,N/A,,Clear,0,2013-03-04 20:52:00
4:52 PM,35.1,15.1,44,30.09,10.0,Calm,Calm,-,N/A,,Clear,0,2013-03-04 21:52:00
5:52 PM,33.1,18.0,54,30.10,10.0,North,5.8,-,N/A,,Clear,350,2013-03-04 22:52:00
6:52 PM,30.9,17.1,57,30.10,10.0,NNE,3.5,-,N/A,,Clear,30,2013-03-04 23:52:00
7:52 PM,28.9,16.0,58,30.10,10.0,Calm,Calm,-,N/A,,Clear,0,2013-03-05 00:52:00
8:52 PM,28.0,17.1,63,30.10,10.0,Calm,Calm,-,N/A,,Clear,0,2013-03-05 01:52:00
9:52 PM,27.0,19.0,72,30.11,10.0,ENE,3.5,-,N/A,,Partly Cloudy,60,2013-03-05 02:52:00
10:52 PM,27.0,19.0,72,30.12,10.0,Calm,Calm,-,N/A,,Partly Cloudy,0,2013-03-05 03:52:00
11:52 PM,26.1,19.0,75,30.13,10.0,Calm,Calm,-,N/A,,Clear,0,2013-03-05 04:52:00